| time (UTC) | temp F | wind direction | speed MPH | gust MPH | rain 1hr in | rain 24hr in | rain mn in | humidity % | barometer mb |
| 20260503233038 | 57 | 0 | 3.0 | 8.0 | 0.00 | 0.00 | 0.00 | 42 | 1012.7 |
| 20260503231546 | 57 | 160 | 1.0 | 14.0 | 0.00 | 0.00 | 0.00 | 41 | 1012.7 |
| 20260503230038 | 57 | 191 | 1.0 | 14.0 | 0.00 | 0.00 | 0.00 | 41 | 1012.9 |
| 20260503224537 | 58 | 232 | 4.0 | 17.0 | 0.00 | 0.00 | 0.00 | 40 | 1012.8 |
| 20260503223039 | 58 | 248 | 5.0 | 13.0 | 0.00 | 0.00 | 0.00 | 40 | 1012.9 |
| 20260503221535 | 58 | 161 | 3.0 | 15.0 | 0.00 | 0.00 | 0.00 | 43 | 1013.0 |
| 20260503220040 | 58 | 163 | 2.0 | 12.0 | 0.00 | 0.00 | 0.00 | 42 | 1013.0 |
| 20260503214544 | 59 | 163 | 4.0 | 12.0 | 0.00 | 0.00 | 0.00 | 40 | 1013.1 |
| 20260503213052 | 59 | 198 | 5.0 | 16.0 | 0.00 | 0.00 | 0.00 | 40 | 1013.1 |
| 20260503211556 | 59 | 242 | 6.0 | 20.0 | 0.00 | 0.00 | 0.00 | 38 | 1013.1 |
| 20260503210036 | 60 | 190 | 4.0 | 12.0 | 0.00 | 0.00 | 0.00 | 38 | 1013.2 |
| 20260503204550 | 59 | 258 | 4.0 | 16.0 | 0.00 | 0.00 | 0.00 | 40 | 1013.2 |
| 20260503203040 | 60 | 132 | 3.0 | 16.0 | 0.00 | 0.00 | 0.00 | 40 | 1013.0 |
| 20260503201539 | 61 | 142 | 4.0 | 15.0 | 0.00 | 0.00 | 0.00 | 39 | 1013.3 |
| 20260503200037 | 59 | 200 | 3.0 | 15.0 | 0.00 | 0.00 | 0.00 | 42 | 1013.6 |
| 20260503194539 | 59 | 174 | 1.0 | 10.0 | 0.00 | 0.00 | 0.00 | 42 | 1014.0 |
| 20260503193036 | 59 | 234 | 2.0 | 14.0 | 0.00 | 0.00 | 0.00 | 40 | 1014.2 |
| 20260503191550 | 59 | 0 | 3.0 | 10.0 | 0.00 | 0.00 | 0.00 | 40 | 1014.4 |
| 20260503190039 | 59 | 219 | 5.0 | 14.0 | 0.00 | 0.00 | 0.00 | 37 | 1014.6 |
| 20260503184544 | 60 | 197 | 4.0 | 14.0 | 0.00 | 0.00 | 0.00 | 36 | 1014.9 |
| 20260503183104 | 60 | 265 | 5.0 | 14.0 | 0.00 | 0.00 | 0.00 | 38 | 1015.0 |
| 20260503181537 | 57 | 213 | 3.0 | 20.0 | 0.00 | 0.00 | 0.00 | 42 | 1015.1 |
| 20260503180037 | 58 | 281 | 4.0 | 10.0 | 0.00 | 0.00 | 0.00 | 42 | 1015.1 |
| 20260503174544 | 60 | 196 | 2.0 | 14.0 | 0.00 | 0.00 | 0.00 | 41 | 1015.4 |
| 20260503173039 | 59 | 0 | 2.0 | 13.0 | 0.00 | 0.00 | 0.00 | 46 | 1015.4 |
| 20260503171538 | 59 | 210 | 2.0 | 9.0 | 0.00 | 0.00 | 0.00 | 46 | 1015.8 |
| 20260503081553 | 35 | 0 | 0.0 | 4.0 | 0.00 | 0.02 | 0.00 | 82 | 1016.5 |
| 20260503071558 | 36 | 0 | 0.0 | 1.0 | 0.00 | 0.05 | 0.00 | 83 | 1016.5 |
| 20260503054551 | 37 | 0 | 0.0 | 3.0 | 0.00 | 0.09 | 0.00 | 81 | 1016.9 |
| 20260503053040 | 37 | 0 | 0.0 | 1.0 | 0.00 | 0.09 | 0.00 | 79 | 1016.9 |
| 20260503051547 | 37 | 0 | 0.0 | 2.0 | 0.00 | 0.09 | 0.00 | 78 | 1017.0 |
| 20260503050038 | 38 | 0 | 0.0 | 3.0 | 0.00 | 0.09 | 0.00 | 77 | 1016.9 |
| 20260503044538 | 39 | 0 | 0.0 | 2.0 | 0.00 | 0.23 | 0.00 | 76 | 1017.0 |
| 20260503043037 | 39 | 0 | 0.0 | 3.0 | 0.00 | 0.23 | 0.00 | 76 | 1016.9 |
| 20260503041537 | 39 | 0 | 0.0 | 1.0 | 0.00 | 0.23 | 0.00 | 76 | 1017.1 |
| 20260503040038 | 39 | 0 | 0.0 | 3.0 | 0.00 | 0.23 | 0.00 | 76 | 1017.2 |
| 20260503034543 | 39 | 0 | 0.0 | 3.0 | 0.00 | 0.23 | 0.23 | 76 | 1017.2 |
| 20260503033050 | 39 | 203 | 0.0 | 4.0 | 0.00 | 0.23 | 0.23 | 76 | 1017.3 |
| 20260503031539 | 40 | 0 | 0.0 | 3.0 | 0.00 | 0.23 | 0.23 | 75 | 1017.3 |
| 20260503030038 | 40 | 201 | 0.0 | 3.0 | 0.00 | 0.23 | 0.23 | 75 | 1017.4 |
| 20260503024544 | 40 | 0 | 0.0 | 2.0 | 0.00 | 0.23 | 0.23 | 75 | 1017.5 |
| 20260503023044 | 40 | 0 | 0.0 | 2.0 | 0.00 | 0.23 | 0.23 | 74 | 1017.7 |
| 20260503021537 | 40 | 0 | 0.0 | 3.0 | 0.00 | 0.23 | 0.23 | 73 | 1017.5 |
| 20260503020041 | 40 | 0 | 0.0 | 1.0 | 0.00 | 0.23 | 0.23 | 72 | 1017.6 |
| 20260503014537 | 40 | 0 | 0.0 | 0.0 | 0.00 | 0.23 | 0.23 | 72 | 1017.6 |
| 20260503013037 | 40 | 0 | 0.0 | 0.0 | 0.00 | 0.23 | 0.23 | 71 | 1017.6 |
| 20260503011534 | 40 | 0 | 0.0 | 0.0 | 0.00 | 0.23 | 0.23 | 68 | 1017.5 |
| 20260503010039 | 41 | 0 | 0.0 | 0.0 | 0.00 | 0.23 | 0.23 | 68 | 1017.5 |
| 20260503004539 | 41 | 0 | 0.0 | 1.0 | 0.00 | 0.23 | 0.23 | 66 | 1017.4 |
| 20260503003039 | 41 | 0 | 0.0 | 4.0 | 0.00 | 0.23 | 0.23 | 64 | 1017.2 |
| 20260503001537 | 42 | 0 | 0.0 | 0.0 | 0.00 | 0.23 | 0.23 | 62 | 1017.3 |
| 20260503000039 | 42 | 0 | 0.0 | 1.0 | 0.00 | 0.23 | 0.23 | 60 | 1017.2 |
| 20260502234548 | 42 | 0 | 0.0 | 3.0 | 0.00 | 0.23 | 0.23 | 60 | 1017.1 |